User: anonymous   Login
Location: Table Mountain
(47.2500°N, 120.5778°W)
Time: 01:17:19
(UTC-07:00)
Language:

Tiangong 2 - Orbit

View from above orbital plane
View from above orbital plane
View from above satellite
View from above satellite

Ground track
Ground track

The orbit data is extracted from the following two-line orbital elements,

1 41765U 16057A   18265.47738137 +.00002683 +00000-0 +37526-4 0  9990
2 41765 042.7847 121.8408 0007676 225.9528 201.6189 15.59506455115212
Epoch (UTC): 22 September 2018 11:27:25
Eccentricity: 0.0007676
inclination: 42.7847°
perigee height: 384 km
apogee height: 394 km
right ascension of ascending node: 121.8408°
argument of perigee: 225.9528°
revolutions per day: 15.59506455
mean anomaly at epoch: 201.6189°
orbit number at epoch: 11521

The dashed part of the orbit path shows where the satellite is in the earth's shadow,  

DLR